Time,TemperatureF,DewpointF,PressureIn,WindDirection,WindDirectionDegrees,WindSpeedMPH,WindSpeedGustMPH,Humidity,HourlyPrecipIn,Conditions,Clouds,dailyrainin,SoftwareType,DateUTC
2013-07-04 00:15:00,60.3,56.7,29.59,North,0,1.7,-999.0,88,-99.99,,,0.00,Acu-Link.com,2013-07-04 07:15:00,
2013-07-04 00:30:00,60.3,56.7,29.59,SW,225,2.7,-999.0,88,-99.99,,,0.00,Acu-Link.com,2013-07-04 07:30:00,
2013-07-04 00:46:00,60.4,56.8,29.58,North,0,2.2,-999.0,88,-99.99,,,0.00,Acu-Link.com,2013-07-04 07:46:00,
2013-07-04 01:01:00,60.6,56.7,29.59,West,270,1.7,-999.0,87,-99.99,,,0.00,Acu-Link.com,2013-07-04 08:01:00,
2013-07-04 01:17:00,60.6,56.7,29.59,West,270,0.0,-999.0,87,-99.99,,,0.00,Acu-Link.com,2013-07-04 08:17:00,
2013-07-04 01:32:00,60.8,56.9,29.59,WNW,292,0.0,-999.0,87,-99.99,,,0.00,Acu-Link.com,2013-07-04 08:32:00,
2013-07-04 01:47:00,60.8,56.9,29.59,West,270,0.0,-999.0,87,-99.99,,,0.00,Acu-Link.com,2013-07-04 08:47:00,
2013-07-04 02:02:00,60.6,56.7,29.59,East,90,0.0,-999.0,87,-99.99,,,0.00,Acu-Link.com,2013-07-04 09:02:00,
2013-07-04 02:17:00,60.8,56.9,29.59,SSE,157,0.0,-999.0,87,-99.99,,,0.00,Acu-Link.com,2013-07-04 09:17:00,
2013-07-04 02:32:00,60.8,56.9,29.58,NNE,22,0.0,-999.0,87,-99.99,,,0.00,Acu-Link.com,2013-07-04 09:32:00,
2013-07-04 02:47:00,61.9,57.7,29.58,East,90,0.0,-999.0,86,-99.99,,,0.00,Acu-Link.com,2013-07-04 09:47:00,
2013-07-04 03:03:00,62.2,57.3,29.57,East,90,2.2,-999.0,84,-99.99,,,0.00,Acu-Link.com,2013-07-04 10:03:00,
2013-07-04 03:18:00,62.6,57.7,29.58,WNW,292,0.0,-999.0,84,-99.99,,,0.00,Acu-Link.com,2013-07-04 10:18:00,
2013-07-04 03:33:00,62.4,57.5,29.57,WNW,292,0.0,-999.0,84,-99.99,,,0.00,Acu-Link.com,2013-07-04 10:33:00,
2013-07-04 03:49:00,62.4,58.2,29.58,West,270,2.2,-999.0,86,-99.99,,,0.00,Acu-Link.com,2013-07-04 10:49:00,
2013-07-04 04:04:00,62.1,58.2,29.58,NE,45,0.0,-999.0,87,-99.99,,,0.00,Acu-Link.com,2013-07-04 11:04:00,
2013-07-04 04:19:00,61.9,58.0,29.57,ESE,112,0.0,-999.0,87,-99.99,,,0.00,Acu-Link.com,2013-07-04 11:19:00,
2013-07-04 04:34:00,61.5,58.2,29.57,East,90,0.0,-999.0,89,-99.99,,,0.00,Acu-Link.com,2013-07-04 11:34:00,
2013-07-04 04:49:00,61.2,58.2,29.57,WNW,292,0.0,-999.0,90,-99.99,,,0.00,Acu-Link.com,2013-07-04 11:49:00,
2013-07-04 05:05:00,61.2,58.2,29.56,NNW,337,4.7,-999.0,90,-99.99,,,0.00,Acu-Link.com,2013-07-04 12:05:00,
2013-07-04 05:20:00,61.0,58.0,29.57,NNE,22,0.0,-999.0,90,-99.99,,,0.00,Acu-Link.com,2013-07-04 12:20:00,
2013-07-04 05:35:00,61.2,58.2,29.57,North,0,1.7,-999.0,90,-99.99,,,0.00,Acu-Link.com,2013-07-04 12:35:00,
2013-07-04 05:50:00,61.0,58.0,29.58,NE,45,0.0,-999.0,90,-99.99,,,0.00,Acu-Link.com,2013-07-04 12:50:00,
2013-07-04 06:06:00,61.0,58.0,29.57,WSW,247,2.7,-999.0,90,-99.99,,,0.00,Acu-Link.com,2013-07-04 13:06:00,
2013-07-04 06:21:00,61.0,58.0,29.57,WNW,292,2.2,-999.0,90,-99.99,,,0.00,Acu-Link.com,2013-07-04 13:21:00,
2013-07-04 06:36:00,61.7,58.4,29.57,West,270,4.2,-999.0,89,-99.99,,,0.00,Acu-Link.com,2013-07-04 13:36:00,
2013-07-04 06:52:00,61.9,58.3,29.58,WNW,292,4.2,-999.0,88,-99.99,,,0.00,Acu-Link.com,2013-07-04 13:52:00,
2013-07-04 07:07:00,62.2,58.3,29.58,NNW,337,0.0,-999.0,87,-99.99,,,0.00,Acu-Link.com,2013-07-04 14:07:00,
2013-07-04 07:22:00,62.8,58.5,29.58,NNE,22,2.7,-999.0,86,-99.99,,,0.00,Acu-Link.com,2013-07-04 14:22:00,
2013-07-04 07:37:00,64.4,58.4,29.59,NNW,337,4.2,-999.0,81,-99.99,,,0.00,Acu-Link.com,2013-07-04 14:37:00,
2013-07-04 07:53:00,62.4,57.8,29.59,NNW,337,4.2,-999.0,85,-99.99,,,0.00,Acu-Link.com,2013-07-04 14:53:00,
2013-07-04 08:08:00,62.8,58.5,29.59,WSW,247,0.0,-999.0,86,-99.99,,,0.00,Acu-Link.com,2013-07-04 15:08:00,
2013-07-04 08:23:00,65.5,59.5,29.59,North,0,1.7,-999.0,81,-99.99,,,0.00,Acu-Link.com,2013-07-04 15:23:00,
2013-07-04 08:38:00,71.6,59.6,29.59,NNW,337,2.2,-999.0,66,-99.99,,,0.00,Acu-Link.com,2013-07-04 15:38:00,
2013-07-04 08:54:00,75.0,59.7,29.60,NNW,337,1.7,-999.0,59,-99.99,,,0.00,Acu-Link.com,2013-07-04 15:54:00,
2013-07-04 09:09:00,76.5,60.1,29.60,SSE,157,2.2,-999.0,57,-99.99,,,0.00,Acu-Link.com,2013-07-04 16:09:00,
2013-07-04 09:24:00,78.1,60.1,29.60,ESE,112,4.2,-999.0,54,-99.99,,,0.00,Acu-Link.com,2013-07-04 16:24:00,
2013-07-04 09:39:00,72.3,58.5,29.60,SW,225,6.3,-999.0,62,-99.99,,,0.00,Acu-Link.com,2013-07-04 16:39:00,
2013-07-04 09:54:00,73.2,58.9,29.60,WNW,292,6.3,-999.0,61,-99.99,,,0.00,Acu-Link.com,2013-07-04 16:54:00,
2013-07-04 10:09:00,71.4,58.6,29.60,East,90,4.2,-999.0,64,-99.99,,,0.00,Acu-Link.com,2013-07-04 17:09:00,
2013-07-04 10:24:00,70.7,58.3,29.60,North,0,8.3,-999.0,65,-99.99,,,0.00,Acu-Link.com,2013-07-04 17:24:00,
2013-07-04 10:40:00,70.9,59.0,29.61,WNW,292,2.7,-999.0,66,-99.99,,,0.00,Acu-Link.com,2013-07-04 17:40:00,
2013-07-04 10:55:00,72.0,59.1,29.60,WNW,292,3.2,-999.0,64,-99.99,,,0.00,Acu-Link.com,2013-07-04 17:55:00,
2013-07-04 11:10:00,72.1,58.8,29.60,East,90,5.8,-999.0,63,-99.99,,,0.00,Acu-Link.com,2013-07-04 18:10:00,
2013-07-04 11:25:00,72.7,58.9,29.60,WSW,247,5.3,-999.0,62,-99.99,,,0.00,Acu-Link.com,2013-07-04 18:25:00,
2013-07-04 11:40:00,73.2,58.5,29.60,NNW,337,8.9,-999.0,60,-99.99,,,0.00,Acu-Link.com,2013-07-04 18:40:00,
2013-07-04 11:55:00,72.9,59.1,29.60,NW,315,4.7,-999.0,62,-99.99,,,0.00,Acu-Link.com,2013-07-04 18:55:00,
2013-07-04 12:10:00,73.0,59.2,29.60,NNW,337,4.7,-999.0,62,-99.99,,,0.00,Acu-Link.com,2013-07-04 19:10:00,
2013-07-04 12:26:00,73.9,59.1,29.60,NW,315,7.8,-999.0,60,-99.99,,,0.00,Acu-Link.com,2013-07-04 19:26:00,
2013-07-04 12:41:00,74.3,59.0,29.59,NNW,337,7.8,-999.0,59,-99.99,,,0.00,Acu-Link.com,2013-07-04 19:41:00,
2013-07-04 12:56:00,74.7,58.9,29.59,NNW,337,4.7,-999.0,58,-99.99,,,0.00,Acu-Link.com,2013-07-04 19:56:00,
2013-07-04 13:11:00,74.3,58.6,29.59,West,270,7.3,-999.0,58,-99.99,,,0.00,Acu-Link.com,2013-07-04 20:11:00,
2013-07-04 13:26:00,73.2,58.5,29.58,NW,315,9.4,-999.0,60,-99.99,,,0.00,Acu-Link.com,2013-07-04 20:26:00,
2013-07-04 13:41:00,72.9,59.1,29.58,West,270,5.8,-999.0,62,-99.99,,,0.00,Acu-Link.com,2013-07-04 20:41:00,
2013-07-04 13:57:00,74.1,58.8,29.58,NNE,22,4.2,-999.0,59,-99.99,,,0.00,Acu-Link.com,2013-07-04 20:57:00,
2013-07-04 14:12:00,74.5,59.2,29.57,NNE,22,3.2,-999.0,59,-99.99,,,0.00,Acu-Link.com,2013-07-04 21:12:00,
2013-07-04 14:27:00,73.8,58.6,29.56,West,270,9.9,-999.0,59,-99.99,,,0.00,Acu-Link.com,2013-07-04 21:27:00,
2013-07-04 14:42:00,74.3,59.0,29.56,West,270,6.8,-999.0,59,-99.99,,,0.00,Acu-Link.com,2013-07-04 21:42:00,
2013-07-04 14:57:00,73.0,59.2,29.55,WSW,247,8.3,-999.0,62,-99.99,,,0.00,Acu-Link.com,2013-07-04 21:57:00,
2013-07-04 15:13:00,72.5,59.2,29.55,NW,315,10.9,-999.0,63,-99.99,,,0.00,Acu-Link.com,2013-07-04 22:13:00,
2013-07-04 15:28:00,72.9,57.7,29.54,NW,315,10.4,-999.0,59,-99.99,,,0.00,Acu-Link.com,2013-07-04 22:28:00,
2013-07-04 15:43:00,73.0,57.3,29.54,SW,225,5.3,-999.0,58,-99.99,,,0.00,Acu-Link.com,2013-07-04 22:43:00,
2013-07-04 15:58:00,72.0,56.9,29.54,West,270,3.7,-999.0,59,-99.99,,,0.00,Acu-Link.com,2013-07-04 22:58:00,
2013-07-04 16:13:00,72.0,57.3,29.53,South,180,4.2,-999.0,60,-99.99,,,0.00,Acu-Link.com,2013-07-04 23:13:00,
2013-07-04 16:28:00,73.2,57.5,29.53,NW,315,4.2,-999.0,58,-99.99,,,0.00,Acu-Link.com,2013-07-04 23:28:00,
2013-07-04 16:43:00,71.8,56.7,29.52,South,180,1.1,-999.0,59,-99.99,,,0.00,Acu-Link.com,2013-07-04 23:43:00,
2013-07-04 16:58:00,72.9,56.3,29.52,North,0,3.7,-999.0,56,-99.99,,,0.00,Acu-Link.com,2013-07-04 23:58:00,
2013-07-04 17:14:00,73.9,56.2,29.52,ESE,112,4.2,-999.0,54,-99.99,,,0.00,Acu-Link.com,2013-07-05 00:14:00,
2013-07-04 17:29:00,74.8,54.3,29.51,North,0,7.8,-999.0,49,-99.99,,,0.00,Acu-Link.com,2013-07-05 00:29:00,
2013-07-04 17:44:00,76.6,54.8,29.51,West,270,1.7,-999.0,47,-99.99,,,0.00,Acu-Link.com,2013-07-05 00:44:00,
2013-07-04 17:59:00,76.3,54.0,29.50,SE,135,4.7,-999.0,46,-99.99,,,0.00,Acu-Link.com,2013-07-05 00:59:00,
2013-07-04 18:14:00,77.2,54.2,29.50,NE,45,2.2,-999.0,45,-99.99,,,0.00,Acu-Link.com,2013-07-05 01:14:00,
2013-07-04 18:30:00,76.1,53.2,29.50,SW,225,0.0,-999.0,45,-99.99,,,0.00,Acu-Link.com,2013-07-05 01:30:00,
2013-07-04 18:45:00,76.3,52.8,29.51,NW,315,3.2,-999.0,44,-99.99,,,0.00,Acu-Link.com,2013-07-05 01:45:00,
2013-07-04 19:01:00,71.6,52.5,29.51,WNW,292,2.2,-999.0,51,-99.99,,,0.00,Acu-Link.com,2013-07-05 02:01:00,
2013-07-04 19:16:00,70.3,52.3,29.50,WNW,292,8.3,-999.0,53,-99.99,,,0.00,Acu-Link.com,2013-07-05 02:16:00,
2013-07-04 19:31:00,67.3,52.0,29.51,North,0,3.2,-999.0,58,-99.99,,,0.00,Acu-Link.com,2013-07-05 02:31:00,
2013-07-04 19:47:00,66.2,51.4,29.51,SE,135,6.8,-999.0,59,-99.99,,,0.00,Acu-Link.com,2013-07-05 02:47:00,
2013-07-04 20:02:00,65.8,51.5,29.51,West,270,5.8,-999.0,60,-99.99,,,0.00,Acu-Link.com,2013-07-05 03:02:00,
2013-07-04 20:17:00,65.3,51.5,29.52,North,0,2.7,-999.0,61,-99.99,,,0.00,Acu-Link.com,2013-07-05 03:17:00,
2013-07-04 20:33:00,64.9,51.6,29.52,North,0,1.7,-999.0,62,-99.99,,,0.00,Acu-Link.com,2013-07-05 03:33:00,
2013-07-04 20:48:00,64.4,51.5,29.52,SE,135,2.2,-999.0,63,-99.99,,,0.00,Acu-Link.com,2013-07-05 03:48:00,
2013-07-04 21:03:00,64.2,51.3,29.52,ESE,112,1.7,-999.0,63,-99.99,,,0.00,Acu-Link.com,2013-07-05 04:03:00,
2013-07-04 21:18:00,64.2,51.3,29.53,North,0,1.1,-999.0,63,-99.99,,,0.00,Acu-Link.com,2013-07-05 04:18:00,
2013-07-04 21:33:00,64.2,51.3,29.53,East,90,1.7,-999.0,63,-99.99,,,0.00,Acu-Link.com,2013-07-05 04:33:00,
2013-07-04 21:49:00,64.2,51.3,29.53,WNW,292,0.0,-999.0,63,-99.99,,,0.00,Acu-Link.com,2013-07-05 04:49:00,
2013-07-04 22:04:00,63.3,50.1,29.54,NE,45,2.7,-999.0,62,-99.99,,,0.00,Acu-Link.com,2013-07-05 05:04:00,
2013-07-04 22:19:00,62.6,50.2,29.54,ENE,67,0.0,-999.0,64,-99.99,,,0.00,Acu-Link.com,2013-07-05 05:19:00,
2013-07-04 22:35:00,60.4,50.6,29.54,West,270,1.7,-999.0,70,-99.99,,,0.00,Acu-Link.com,2013-07-05 05:35:00,
2013-07-04 22:50:00,59.5,50.8,29.54,West,270,3.7,-999.0,73,-99.99,,,0.00,Acu-Link.com,2013-07-05 05:50:00,
2013-07-04 23:05:00,58.8,50.9,29.54,NW,315,10.4,-999.0,75,-99.99,,,0.00,Acu-Link.com,2013-07-05 06:05:00,
2013-07-04 23:21:00,58.3,51.1,29.54,North,0,7.3,-999.0,77,-99.99,,,0.00,Acu-Link.com,2013-07-05 06:21:00,
2013-07-04 23:36:00,58.1,51.3,29.55,WNW,292,5.3,-999.0,78,-99.99,,,0.00,Acu-Link.com,2013-07-05 06:36:00,
2013-07-04 23:51:00,57.9,51.4,29.55,NNW,337,4.7,-999.0,79,-99.99,,,0.00,Acu-Link.com,2013-07-05 06:51:00,